{"data":{"norad_id":57745,"intl_designator":"2023-131P","name":"STARLINK-30362","alt_names":[],"object_type":"PAYLOAD","status":"ACTIVE","operator":null,"country":"US","launch_date":"2023-09-01","launch_site_code":"AFETR","launch_vehicle":null,"mission":null,"orbit_class":"UNKNOWN","rcs_meters":null,"size_class":null,"mass_kg":null,"dimensions":null,"purposes":["comms"],"wikipedia_slug":null,"has_3d_model":false,"image_url":null,"decayed_at":null,"tle_current":{"epoch":"2026-09-20T02:18:26.000064Z","epoch_age_seconds":183446,"freshness":"STALE","line1":"1 57745U 23131P   26263.09613426  .00000785  00000+0  38061-4 0  9999","line2":"2 57745  43.0053 154.9504 0001475 262.7898  97.2786 15.27582138169649","mean_motion":15.27582138,"eccentricity":0.0001475,"inclination_deg":43.0053,"raan_deg":154.9504,"arg_perigee_deg":262.7898,"mean_anomaly_deg":97.2786,"bstar":3.8061e-5,"rev_number":16964,"period_min":94.266616778155,"perigee_km":482.0306701011,"apogee_km":484.05471811086,"semimajor_km":6861.179694106,"source":"CELESTRAK","updated_at":"2026-09-21T09:00:33.681163Z"}}}